Location: Ku?niki
(51.4449°N, 17.8974°E)
Time: 16:24:17
(UTC+00:00)

Cosmos 2151 Rocket - Pass Details

Date: 18 September 2020
Orbit: 618 x 642 km, 82.5° (Epoch: 22 October)

Event Time Altitude Azimuth Distance (km) Brightness Sun altitude
Rises 18:45:06 0° 188° (S) 2,904 6.8 -17.3°
Reaches altitude 10° 18:47:18 10° 188° (S) 2,005 6.0 -17.7°
Maximum altitude 18:51:45 89° 114° (ESE) 641 3.5 -18.3°
Drops below altitude 10° 18:56:18 10° 11° (N) 2,037 6.4 -18.9°
Sets 18:58:33 0° 11° (N) 2,954 7.3 -19.2°
